Погода в Новом Аннине

Россия / Владимирская область     55°56′06″N   39°23′26″E
темп.,
°C
ветер,
м/с
пор.,
м/с
влажн.,
%
обл.,
%
осадки,
мм/ч
давл.,
гПа
погр.,
м
24 июня, чт
чт2400:00+21ююв11705 0.0 102111
03:00+20ююз01751 0.0 102111
06:00+23з11740 0.0 102155
09:00+29ююз11522 0.0 1020440
12:00+33ю11365 0.0 10201587
15:00+34юз122917 0.0 10182392
18:00+33з11445 0.0 1017115
21:00+24зюз22725 0.0 101717
25 июня, пт
пт2500:00+22зюз22805 0.0 101815
03:00+21юз2283100 0.0 101736
06:00+23зюз238052 0.0 1017110
09:00+29ююз245556 0.0 1016572
12:00+32юз333835 0.0 10161903
15:00+33зюз333276 0.0 10152528
18:00+31юз35465 0.0 1013584
21:00+24зюз24784 0.0 101480
26 июня, сб
сб2600:00+19св269697 1.2 1015119
03:00+18ююв22955 1.2 101436
06:00+22ююв1392100 0.0 1014126
09:00+27зюз246216 0.0 1014675
12:00+31юз234442 0.0 10131541
15:00+33юз23365 0.0 10122331
18:00+30юз365292 0.0 1011443
21:00+24зюз25763 0.0 101199
27 июня, вс
вс2700:00+22з23866 0.1 101264
03:00+20ююв11920 1.9 101211
06:00+22ююз139218 1.5 1012103
09:00+27зюз246578 1.5 1013561
12:00+32зюз22456 0.0 10121854
15:00+33зюз223644 0.0 10122827
18:00+22вюв51085100 0.8 1012204
21:00+21з228769 2.0 101230
28 июня, пн
пн2800:00+19вюв239542 1.3 101350
03:00+19ю119343 1.3 101213
06:00+22ююв119077 0.0 101158
09:00+28ююз136661 0.0 1012575
12:00+31зюз2347100 0.6 10111892
15:00+32з234193 0.6 10112367
18:00+21с3892100 2.7 1011263
21:00+19сз2293100 5.2 101117